Tracking 19247 objects as of 22-Sep-2018
HD Live streaming from Space Station
objects crossing your sky now

LINGQIAO VIDEO A

Track LINGQIAO VIDEO A now!
10-day predictions


NORAD ID: 40959
Int'l Code: 2015-057B
Perigee: 644.7 km
Apogee: 671.3 km
Inclination: 97.9 °
Period: 97.7 minutes
Semi major axis: 7028 km
RCS: Unknown
Launch date: October 7, 2015
Source: People's Republic of China (PRC)
Launch site: Jiuquan Satellite Launch Center, China (JSC)

LINGQIAO VIDEO A is a Chinese satellite designed for video capture.
aabbcc
Your satellite tracking list
Your tracking list is empty




NASA's NSSDC Master Catalog

Two Line Element Set (TLE):
1 40959U 15057B   18264.84972989 -.00000000 +00000-0 +76585-5 0  9999
2 40959 097.9326 336.0893 0018955 031.6028 328.6304 14.73207859159103
Source of the keplerian elements: AFSPC